Two Harbors, MN

7:08 PM CST on December 07, 2016 (GMT -0600)
Silver Bay Municipal

Weather History for KBFW - October, 2011

Change the Weather History Date:

Friday, October 7, 2011

  Actual Average Record
Temperature  
Mean Temperature 58 °F -  
Max Temperature 75 °F 54 °F 77 °F (2003)
Min Temperature 42 °F 32 °F 19 °F (2001)
Degree Days  
Heating Degree Days 6    
Growing Degree Days 8 (Base 50)    
Moisture  
Dew Point 49 °F    
Average Humidity 65    
Maximum Humidity 100    
Minimum Humidity 44    
Precipitation  
Precipitation 0.00 in - - ()
Sea Level Pressure  
Sea Level Pressure 29.95 in    
Wind  
Wind Speed 3 mph (SSE)    
Max Wind Speed 15 mph    
Max Gust Speed 23 mph    
Visibility 10 miles    
Events Rain    
Averages and records for this station are not official NWS values.
T = Trace of Precipitation, MM = Missing Value Source: NWS Daily Summary

Daily Weather History Graph

Daily Weather History Graph

Search for Another Location

Airport or City:

Trip Planner

Search our weather history database for the weather conditions in past years. The results will help you decide how hot, cold, wet, or windy it might be!

Date:

Astronomy

Oct. 07, 2011 Rise Set
Actual Time 7:12 AM CDT 6:33 PM CDT
Civil Twilight 6:41 AM CDT 7:04 PM CDT
Nautical Twilight 6:06 AM CDT 7:39 PM CDT
Astronomical Twilight 5:30 AM CDT 8:15 PM CDT
Moon 4:29 PM CDT (10/7) 2:46 AM CDT (10/7)
Length of Visible Light 12h 22m
Length of Day
11h 21m
Waxing Gibbous, 83% of the Moon is Illuminated
Oct 7
Waxing Gibbous
Oct 11
Full
Oct 19
Last Quarter
Oct 26
New
Nov 2
First Quarter

Hourly Weather History & Observations

Time (CDT) Temp. Dew Point Humidity Pressure Visibility Wind Dir Wind Speed Gust Speed Precip Events Conditions
12:14 AM 46.4 °F 42.8 °F 87% 30.07 in 10.0 mi Calm Calm - N/A   Clear
12:34 AM 44.6 °F 41.0 °F 87% 30.07 in 10.0 mi Calm Calm - N/A   Clear
12:54 AM 44.6 °F 42.8 °F 93% 30.07 in 10.0 mi Calm Calm - N/A   Clear
1:14 AM 42.8 °F 41.0 °F 93% 30.07 in 10.0 mi Calm Calm - N/A   Clear
1:34 AM 42.8 °F 39.2 °F 87% 30.06 in 10.0 mi Calm Calm - N/A   Clear
1:54 AM 42.8 °F 42.8 °F 100% 30.06 in 10.0 mi Calm Calm - N/A   Clear
2:14 AM 42.8 °F 41.0 °F 93% 30.06 in 10.0 mi Calm Calm - N/A   Clear
2:34 AM 42.8 °F 39.2 °F 87% 30.05 in 10.0 mi Calm Calm - N/A   Clear
2:54 AM 42.8 °F 42.8 °F 100% 30.05 in 10.0 mi Calm Calm - N/A   Clear
3:14 AM 42.8 °F 41.0 °F 93% 30.05 in 10.0 mi Calm Calm - N/A   Clear
3:54 AM 50.0 °F 46.4 °F 87% 30.04 in 10.0 mi NNE 3.5 mph - N/A   Clear
4:14 AM 50.0 °F 44.6 °F 82% 30.05 in 10.0 mi Calm Calm - N/A   Clear
4:34 AM 51.8 °F 46.4 °F 82% 30.04 in 10.0 mi Calm Calm - N/A   Clear
4:54 AM 53.6 °F 48.2 °F 82% 30.04 in 10.0 mi Calm Calm - N/A   Clear
5:14 AM 53.6 °F 48.2 °F 82% 30.04 in 10.0 mi Calm Calm - N/A   Clear
5:34 AM 53.6 °F 48.2 °F 82% 30.03 in 10.0 mi Calm Calm - N/A   Clear
5:54 AM 55.4 °F 48.2 °F 77% 30.03 in 10.0 mi Calm Calm - N/A   Clear
6:14 AM 55.4 °F 48.2 °F 77% 30.03 in 10.0 mi Calm Calm - N/A   Clear
6:34 AM 53.6 °F 48.2 °F 82% 30.03 in 10.0 mi Calm Calm - N/A   Clear
6:54 AM 53.6 °F 46.4 °F 77% 30.02 in 10.0 mi ENE 3.5 mph - N/A   Clear
7:14 AM 53.6 °F 48.2 °F 82% 30.02 in 10.0 mi Calm Calm - N/A   Clear
7:34 AM 51.8 °F 46.4 °F 82% 30.02 in 10.0 mi Calm Calm - N/A   Clear
7:54 AM 51.8 °F 46.4 °F 82% 30.02 in 10.0 mi Calm Calm - N/A   Clear
8:14 AM 53.6 °F 48.2 °F 82% 30.01 in 10.0 mi Calm Calm - N/A   Clear
8:34 AM 57.2 °F 50.0 °F 77% 30.01 in 10.0 mi NE 3.5 mph - N/A   Clear
8:54 AM 62.6 °F 51.8 °F 68% 30.00 in 10.0 mi Calm Calm - N/A   Clear
9:14 AM 66.2 °F 51.8 °F 60% 30.00 in 10.0 mi SSE 3.5 mph - N/A   Clear
9:54 AM 66.2 °F 51.8 °F 60% 29.99 in 10.0 mi South 4.6 mph - N/A   Clear
10:14 AM 66.2 °F 51.8 °F 60% 29.99 in 10.0 mi SE 3.5 mph - N/A   Clear
10:34 AM 69.8 °F 51.8 °F 53% 29.98 in 10.0 mi South 5.8 mph - N/A   Clear
10:54 AM 68.0 °F 51.8 °F 56% 29.98 in 10.0 mi SSE 5.8 mph - N/A   Clear
11:14 AM 69.8 °F 51.8 °F 53% 29.97 in 10.0 mi Calm Calm - N/A   Clear
11:34 AM 71.6 °F 51.8 °F 50% 29.96 in 10.0 mi South 4.6 mph - N/A   Clear
11:54 AM 71.6 °F 51.8 °F 50% 29.96 in 10.0 mi South 10.4 mph - N/A   Clear
12:14 PM 71.6 °F 51.8 °F 50% 29.95 in 10.0 mi South 10.4 mph 18.4 mph N/A   Clear
12:34 PM 71.6 °F 51.8 °F 50% 29.95 in 10.0 mi SE 5.8 mph - N/A   Clear
12:54 PM 73.4 °F 51.8 °F 47% 29.93 in 10.0 mi South 8.1 mph - N/A   Clear
1:14 PM 73.4 °F 51.8 °F 47% 29.92 in 10.0 mi South 9.2 mph - N/A   Clear
1:34 PM 73.4 °F 51.8 °F 47% 29.90 in 10.0 mi SSE 6.9 mph - N/A   Clear
1:55 PM 73.4 °F 51.8 °F 47% 29.89 in 10.0 mi SSE 10.4 mph 17.3 mph N/A   Clear
2:14 PM 73.4 °F 51.8 °F 47% 29.89 in 10.0 mi SSE 6.9 mph - N/A   Clear
2:34 PM 75.2 °F 51.8 °F 44% 29.88 in 10.0 mi SSE 8.1 mph - N/A   Clear
3:14 PM 73.4 °F 51.8 °F 47% 29.87 in 10.0 mi SSE 8.1 mph - N/A   Clear
3:34 PM 75.2 °F 51.8 °F 44% 29.86 in 10.0 mi SSE 8.1 mph - N/A   Clear
3:54 PM 75.2 °F 51.8 °F 44% 29.85 in 10.0 mi SSE 9.2 mph - N/A   Clear
4:14 PM 75.2 °F 51.8 °F 44% 29.85 in 10.0 mi SSE 9.2 mph - N/A   Clear
4:34 PM 75.2 °F 51.8 °F 44% 29.85 in 10.0 mi SSE 8.1 mph - N/A   Clear
4:54 PM 73.4 °F 51.8 °F 47% 29.84 in 10.0 mi South 6.9 mph - N/A   Scattered Clouds
5:14 PM 71.6 °F 51.8 °F 50% 29.83 in 10.0 mi South 10.4 mph 18.4 mph N/A   Scattered Clouds
5:34 PM 71.6 °F 51.8 °F 50% 29.84 in 10.0 mi South 8.1 mph - N/A   Scattered Clouds
5:54 PM 71.6 °F 51.8 °F 50% 29.84 in 10.0 mi South 6.9 mph - N/A   Scattered Clouds
6:14 PM 69.8 °F 51.8 °F 53% 29.83 in 10.0 mi South 8.1 mph - N/A   Scattered Clouds
6:34 PM 69.8 °F 51.8 °F 53% 29.83 in 10.0 mi South 9.2 mph - N/A   Scattered Clouds
6:54 PM 71.6 °F 51.8 °F 50% 29.83 in 10.0 mi SSE 8.1 mph - N/A   Mostly Cloudy
7:14 PM 69.8 °F 51.8 °F 53% 29.83 in 10.0 mi South 9.2 mph - N/A   Overcast
7:54 PM 71.6 °F 51.8 °F 50% 29.83 in 10.0 mi South 9.2 mph - N/A   Overcast
8:14 PM 69.8 °F 53.6 °F 56% 29.83 in 10.0 mi South 10.4 mph - N/A Rain Light Rain
8:34 PM 69.8 °F 51.8 °F 53% 29.83 in 10.0 mi South 11.5 mph 20.7 mph N/A Rain Light Rain
8:54 PM 71.6 °F 51.8 °F 50% 29.83 in 10.0 mi South 13.8 mph - N/A   Overcast
9:14 PM 71.6 °F 51.8 °F 50% 29.83 in 10.0 mi South 15.0 mph 19.6 mph N/A Rain Light Rain
9:34 PM 71.6 °F 51.8 °F 50% 29.83 in 10.0 mi South 12.7 mph 20.7 mph N/A   Overcast
9:54 PM 71.6 °F 51.8 °F 50% 29.83 in 10.0 mi South 15.0 mph 23.0 mph N/A   Overcast
10:14 PM 71.6 °F 50.0 °F 46% 29.84 in 10.0 mi SSW 16.1 mph 23.0 mph N/A   Overcast
10:34 PM 71.6 °F 48.2 °F 43% 29.83 in 10.0 mi SSW 18.4 mph 26.5 mph N/A   Overcast
10:54 PM 71.6 °F 48.2 °F 43% 29.84 in 10.0 mi SSW 19.6 mph 27.6 mph N/A   Overcast
11:14 PM 73.4 °F 48.2 °F 41% 29.83 in 10.0 mi South 21.9 mph 28.8 mph N/A   Mostly Cloudy
11:34 PM 73.4 °F 48.2 °F 41% 29.84 in 10.0 mi SSW 23.0 mph 32.2 mph N/A   Scattered Clouds
11:54 PM 71.6 °F 48.2 °F 43% 29.83 in 10.0 mi SSW 19.6 mph 26.5 mph N/A   Scattered Clouds